Simultaneous Nadir Overpasses (SNOs) Predictions

Prediction of SNOs between NPP and TERRA Satellite Orbit:

Table of predicted SNOs for the next 14.0 days since TLE Epoch: 5/3/2015
Index Date (NPP) Time (NPP) Lat,Lon (NPP) SZA (NPP ) Date (TERRA) Time (TERRA) Lat,Lon (TERRA) SZA (TERRA ) Distance(km) Time Diff (sec)
1 05/05/2015 15:55:02 68.94, -59.49 52.54 05/05/2015 15:55:52 68.92, -59.49 52.52 2.10 50
2 05/05/2015 16:45:43 -68.81, 108.00 127.60 05/05/2015 16:45:22 -68.81, 108.01 127.60 0.36 21
3 05/05/2015 17:36:11 67.81, -83.41 51.40 05/05/2015 17:35:04 67.87, -85.49 51.45 87.41 67
4 05/08/2015 08:11:57 68.91, 56.31 51.76 05/08/2015 08:12:25 68.90, 56.35 51.76 1.61 28
5 05/08/2015 09:02:38 -68.78,-136.19 128.38 05/08/2015 09:01:55 -68.80,-136.15 128.36 3.22 43
6 05/10/2015 23:38:14 -69.38, 4.11 128.47 05/10/2015 23:39:25 -69.26, 5.03 128.59 38.89 71
7 05/11/2015 00:28:51 68.88, 172.11 51.02 05/11/2015 00:28:57 68.87, 172.18 51.01 2.97 6
8 05/11/2015 01:19:31 -68.69, -20.32 129.18 05/11/2015 01:18:28 -68.72, -20.38 129.16 3.37 63
9 05/13/2015 15:55:01 -68.93, 120.49 129.60 05/13/2015 15:56:03 -68.94, 120.49 129.59 0.66 62
10 05/13/2015 16:45:45 68.80, -72.03 50.27 05/13/2015 16:45:30 68.82, -72.01 50.29 2.30 15
11 05/13/2015 17:36:18 -68.24, 96.03 130.30 05/13/2015 17:35:07 -68.34, 95.02 130.21 42.68 71
12 05/16/2015 08:11:55 -68.86,-123.65 130.31 05/16/2015 08:12:36 -68.88,-123.72 130.29 3.43 41
13 05/16/2015 09:02:40 68.79, 43.75
